STARLINK-1832

Last updated on Tue Nov 24 2020 00:02:03 GMT+0000 (Coordinated Universal Time)

1 46780U 20074AT 20328.58334491 .00005470 00000-0 65502-4 0 9998 2 46780 53.0549 13.4264 0001147 56.0135 5.6760 15.62763869 1802
UTC large
Height (km)
Speed (km/s)
/
Latitude / Longitude
Inclination (degrees)
Orbital Period (minutes)
Azimuth
Elevation
Range (km)
Doppler Factor

Next 0 passes for location: London (51.5072 / 0.1276)

Sorry there are no passes over London.